Regional Weather Roundup
Issued by NWS

Home | Current Version | Previous Version | Graphics & Text | Print | Product List | Glossary On
Versions: 1 2 3 4 5 6 7 8 9 10 11 12 13 14 15 16 17 18 19 20 21 22 23 24 25 26 27 28 29 30 31 32 33 34 35 36 37 38 39 40 41 42 43 44 45 46 47 48 49 50
000
ASUS43 KLOT 181302
RWRIL

ILLINOIS REGIONAL WEATHER ROUNDUP
NATIONAL WEATHER SERVICE CHICAGO/ROMEOVILLE IL
800 AM CDT SAT APR 18 2015

NOTE: "FAIR" INDICATES FEW OR NO CLOUDS BELOW 12,000 FEET WITH NO
SIGNIFICANT WEATHER AND/OR OBSTRUCTIONS TO VISIBILITY.

* THESE STATIONS ARE NOT UNDER NWS QUALITY CONTROL. THEY ALSO MAY NOT
  REPORT WEATHER SUCH AS PRECIPITATION OR FOG.

ILZ001-002-007-009-015-016-024-181400-
NORTHWEST ILLINOIS

CITY           SKY/WX    TMP DP  RH WIND       PRES   REMARKS
MOLINE         MOSUNNY   55  50  83 E3        30.01S
STERLING*      MOSUNNY   57  48  72 E6        30.03S
$$

ILZ003-004-008-010-011-017-018-181400-
NORTH CENTRAL ILLINOIS

CITY           SKY/WX    TMP DP  RH WIND       PRES   REMARKS
ROCKFORD       PTSUNNY   59  50  72 N3        30.06F
$$

ILZ005-006-012>014-019>023-181400-
NORTHEAST ILLINOIS

CITY           SKY/WX    TMP DP  RH WIND       PRES   REMARKS
CHICAGO-OHARE  PTSUNNY   64  46  52 NE8       30.04S
CHICAGO-MIDWAY MOSUNNY   66  50  56 N8        30.04S
AURORA         MOSUNNY   60  51  72 CALM      30.04S HAZE
WAUKEGAN       SUNNY     53  40  61 N17G33    30.07R
DUPAGE AIRPORT SUNNY     61  52  72 N6        30.04S
WHEELING       MOSUNNY   62  44  51 NE16G25   30.07R
NORTHERLY ISL    N/A     64  44  48 N13         N/A
$$

LMZ740>746-181400-
SOUTHERN LAKE MICHIGAN

STATION/POSITION SKY/WX   TEMP    WIND        PRES    VSBY  WAVE
                          AIR SEA DIR/SP/G                  HT/PER
                          (F)     (DEG/KT/KT) (MB)    (MI)  (FT/S)
HARRISON CRIB              63     300/  8/  9   N/A
BURNHAM HARBOR             63     270/  6/ 11   N/A
CALUMET HARBOR             61     250/  2/  4   N/A
BURNS HARBOR               61     210/  6/  8 1017.6R
MICHIGAN CITY              62     200/  5/  6   N/A
MICHIGAN CITY 6N           51 47                N/A           0
$$

ILZ025>027-034>036-040-047-049-050-058-095>099-181400-
WEST-CENTRAL ILLINOIS

CITY           SKY/WX    TMP DP  RH WIND       PRES   REMARKS
QUINCY         CLOUDY    62  56  80 SE5       29.99S
$$

ILZ028>032-037-038-041>044-048-051>054-059>061-181400-
CENTRAL ILLINOIS

CITY           SKY/WX    TMP DP  RH WIND       PRES   REMARKS
DECATUR        PTSUNNY   59  54  83 CALM      30.04S
PEORIA         PTSUNNY   64  56  75 CALM      30.02S
SPRINGFIELD    PTSUNNY   61  56  83 E3        30.02S
TAYLORVILLE    NOT AVBL
$$

ILZ033-039-045-046-055>057-062-063-181400-
EAST-CENTRAL ILLINOIS

CITY           SKY/WX    TMP DP  RH WIND       PRES   REMARKS
CHAMPAIGN      PTSUNNY   63  53  70 SE3       30.04S
MATTOON        PTSUNNY   58  53  84 CALM      30.03S
$$

ILZ079-100>102-181400-
SOUTHWEST ILLINOIS

CITY           SKY/WX    TMP DP  RH WIND       PRES   REMARKS
CAHOKIA*       CLOUDY    61  58  90 CALM      30.01R FOG
$$

ILZ064>066-069>071-074>076-080>082-084>086-088>090-092>094-181400-
SOUTH-CENTRAL ILLINOIS

CITY           SKY/WX    TMP DP  RH WIND       PRES   REMARKS
CARBONDALE     PTSUNNY   60  59  96 SE3       30.01F FOG
MARION         MOSUNNY   61  61 100 E5        30.03R FOG
MT. VERNON     CLOUDY    57  54  88 CALM      30.03F
$$

ILZ067-068-072-073-078-083-087-091-181400-
SOUTHEAST ILLINOIS

CITY           SKY/WX    TMP DP  RH WIND       PRES   REMARKS
LAWRENCEVILLE  CLOUDY    57  55  93 NE3       30.03F
ROBINSON*      CLOUDY    54  53  99 CALM      30.06R
$$

ABBREVIATIONS USED IN REMARKS
   TC - TEMPERATURE IN CELSIUS
  WCI - WIND CHILL INDEX
   HX - HEAT INDEX
  VSB - VISIBILITY
$$



USA.gov is the U.S. government's official web portal to all federal, state and local government web resources and services.